AAL2622 KDCA-KSYR

Flight info

Callsign AAL2622
Flight time 0h 51m
Altitude 33000
Route HORTO4 JERES Q221 MICAH CFB
Aircraft A319/M-SDE3FGHIRWY/LB1

Departure

Time 2026-05-01 13:01
Airport Ronald Reagan Washington National Airport (KDCA)

Arrival

Time 2026-05-01 13:53
Airport Syracuse Hancock International Airport (KSYR)
Time Latitude Longitude Altitude Speed Heading
2026-05-01 12:40 38.85557 -77.04273 28 ft 0 kts 338°
2026-05-01 12:52 38.85524 -77.04260 28 ft 4 kts 355°
2026-05-01 12:52 38.85499 -77.04263 27 ft 4 kts 36°
2026-05-01 12:53 38.85489 -77.04281 28 ft 0 kts 71°
2026-05-01 12:55 38.85490 -77.04274 27 ft 2 kts 72°
2026-05-01 12:55 38.85497 -77.04247 27 ft 5 kts 73°
2026-05-01 12:55 38.85511 -77.04187 26 ft 9 kts 72°
2026-05-01 12:56 38.85534 -77.04095 26 ft 13 kts 73°
2026-05-01 12:56 38.85557 -77.03994 27 ft 9 kts 78°
2026-05-01 12:56 38.85516 -77.03953 27 ft 10 kts 176°
2026-05-01 12:56 38.85433 -77.03946 26 ft 14 kts 174°
2026-05-01 12:57 38.85317 -77.03935 22 ft 18 kts 175°
2026-05-01 12:57 38.85026 -77.03901 22 ft 26 kts 175°
2026-05-01 12:57 38.84837 -77.03883 22 ft 25 kts 176°
2026-05-01 12:58 38.84667 -77.03867 25 ft 27 kts 175°
2026-05-01 12:58 38.84501 -77.03850 24 ft 17 kts 174°
2026-05-01 12:58 38.84373 -77.03837 27 ft 19 kts 175°
2026-05-01 12:59 38.84176 -77.03791 24 ft 0 kts 121°
2026-05-01 13:00 38.84168 -77.03770 24 ft 5 kts 115°
2026-05-01 13:00 38.84167 -77.03701 24 ft 10 kts 77°
2026-05-01 13:01 38.84551 -77.03715 24 ft 86 kts 355°
2026-05-01 13:01 38.85393 -77.03802 56 ft 149 kts 355°
2026-05-01 13:01 38.87457 -77.04414 1360 ft 157 kts 327°
2026-05-01 13:02 38.88334 -77.05349 1858 ft 176 kts 320°
2026-05-01 13:07 39.14551 -77.46136 16281 ft 366 kts 352°
2026-05-01 13:07 39.17109 -77.46284 16913 ft 369 kts
2026-05-01 13:07 39.19693 -77.46234 17534 ft 373 kts
2026-05-01 13:08 39.22276 -77.46188 18133 ft 376 kts
2026-05-01 13:08 39.24918 -77.46143 18729 ft 380 kts
2026-05-01 13:08 39.27574 -77.46102 19318 ft 383 kts
2026-05-01 13:08 39.30260 -77.46063 19902 ft 387 kts
2026-05-01 13:09 39.32965 -77.46026 20470 ft 390 kts
2026-05-01 13:09 39.35665 -77.45988 21017 ft 393 kts
2026-05-01 13:09 39.38416 -77.45947 21549 ft 396 kts
2026-05-01 13:09 39.41188 -77.45900 22067 ft 400 kts
2026-05-01 13:10 39.43991 -77.45850 22569 ft 403 kts
2026-05-01 13:10 39.46799 -77.45799 23048 ft 406 kts
2026-05-01 13:10 39.49629 -77.45752 23513 ft 409 kts
2026-05-01 13:10 39.52449 -77.45707 23951 ft 411 kts
2026-05-01 13:11 39.55324 -77.45660 24402 ft 414 kts
2026-05-01 13:11 39.58222 -77.45611 24832 ft 417 kts
2026-05-01 13:11 39.61137 -77.45560 25254 ft 420 kts
2026-05-01 13:11 39.64060 -77.45508 25666 ft 422 kts
2026-05-01 13:12 39.67013 -77.45457 26067 ft 425 kts
2026-05-01 13:12 39.69993 -77.45407 26460 ft 428 kts
2026-05-01 13:12 39.72943 -77.45358 26844 ft 430 kts
2026-05-01 13:12 39.75951 -77.45311 27227 ft 433 kts
2026-05-01 13:13 39.78977 -77.45262 27595 ft 436 kts
2026-05-01 13:13 39.82016 -77.45211 27958 ft 438 kts
2026-05-01 13:13 39.85077 -77.45161 28314 ft 441 kts
2026-05-01 13:13 39.88155 -77.45112 28661 ft 443 kts
2026-05-01 13:14 39.91249 -77.45061 28999 ft 445 kts
2026-05-01 13:14 39.94361 -77.45013 29328 ft 448 kts
2026-05-01 13:14 39.97455 -77.44964 29643 ft 450 kts
2026-05-01 13:14 40.00591 -77.44911 29954 ft 452 kts
2026-05-01 13:15 40.03746 -77.44858 30250 ft 454 kts
2026-05-01 13:15 40.06919 -77.44802 30552 ft 456 kts
2026-05-01 13:15 40.10106 -77.44746 30842 ft 459 kts
2026-05-01 13:15 40.12262 -77.44687 31027 ft 460 kts
2026-05-01 13:16 40.15399 -77.44141 31316 ft 461 kts 12°
2026-05-01 13:16 40.18470 -77.42933 31701 ft 460 kts 21°
2026-05-01 13:16 40.21379 -77.41182 32088 ft 459 kts 26°
2026-05-01 13:17 40.30009 -77.35685 32897 ft 453 kts 25°
2026-05-01 13:17 40.32782 -77.33925 32908 ft 448 kts 26°
2026-05-01 13:18 40.41172 -77.28576 32908 ft 445 kts 26°
2026-05-01 13:18 40.46715 -77.25036 32910 ft 445 kts 26°
2026-05-01 13:19 40.52283 -77.21471 32909 ft 444 kts 26°
2026-05-01 13:20 40.60591 -77.16124 32905 ft 444 kts 26°
2026-05-01 13:20 40.66153 -77.12538 32896 ft 444 kts 26°
2026-05-01 13:21 40.74454 -77.07189 32896 ft 443 kts 26°
2026-05-01 13:21 40.80005 -77.03608 32889 ft 444 kts 26°
2026-05-01 13:22 40.85559 -77.00022 32892 ft 444 kts 26°
2026-05-01 13:22 40.91071 -76.96437 32896 ft 444 kts 26°
2026-05-01 13:23 40.96626 -76.92819 32893 ft 444 kts 26°
2026-05-01 13:23 41.02171 -76.89210 32890 ft 444 kts 26°
2026-05-01 13:24 41.07688 -76.85606 32896 ft 444 kts 26°
2026-05-01 13:25 41.15985 -76.80175 32889 ft 444 kts 26°
2026-05-01 13:25 41.21535 -76.76534 32889 ft 444 kts 26°
2026-05-01 13:26 41.27044 -76.72909 32890 ft 444 kts 26°
2026-05-01 13:26 41.32580 -76.69259 32889 ft 443 kts 26°
2026-05-01 13:27 41.38117 -76.65608 32889 ft 443 kts 26°
2026-05-01 13:27 41.46372 -76.60155 32886 ft 443 kts 26°
2026-05-01 13:28 41.51904 -76.56490 32762 ft 444 kts 26°
2026-05-01 13:28 41.54676 -76.54655 32163 ft 444 kts 26°
2026-05-01 13:29 41.60206 -76.50982 31028 ft 441 kts 26°
2026-05-01 13:29 41.65642 -76.47361 29912 ft 435 kts 26°
2026-05-01 13:30 41.76322 -76.40215 27692 ft 423 kts 26°
2026-05-01 13:31 41.81562 -76.36714 26604 ft 417 kts 26°
2026-05-01 13:31 41.89251 -76.31553 25043 ft 406 kts 26°
2026-05-01 13:32 41.94243 -76.28194 24079 ft 399 kts 26°
2026-05-01 13:33 42.01613 -76.23226 22707 ft 389 kts 26°
2026-05-01 13:33 42.06384 -76.20003 21812 ft 382 kts 26°
2026-05-01 13:34 42.11100 -76.16814 20898 ft 375 kts 26°
2026-05-01 13:34 42.15844 -76.14102 19956 ft 367 kts 13°
2026-05-01 13:35 42.20875 -76.13493 18992 ft 361 kts
2026-05-01 13:35 42.23343 -76.13419 18511 ft 358 kts
2026-05-01 13:35 42.28241 -76.13261 17957 ft 340 kts
2026-05-01 13:36 42.30581 -76.13182 17699 ft 333 kts
2026-05-01 13:36 42.32886 -76.13105 17322 ft 329 kts
2026-05-01 13:36 42.37447 -76.12966 16519 ft 325 kts
2026-05-01 13:37 42.39702 -76.12894 16114 ft 323 kts
2026-05-01 13:37 42.41914 -76.12822 15717 ft 321 kts
2026-05-01 13:37 42.44150 -76.12752 15322 ft 319 kts
2026-05-01 13:37 42.46372 -76.12685 14914 ft 317 kts
2026-05-01 13:38 42.50732 -76.12553 14129 ft 313 kts
2026-05-01 13:38 42.52907 -76.12483 13745 ft 311 kts
2026-05-01 13:38 42.55068 -76.12413 13356 ft 309 kts
2026-05-01 13:39 42.57225 -76.12340 12975 ft 308 kts
2026-05-01 13:39 42.59362 -76.12266 12599 ft 306 kts
2026-05-01 13:39 42.61465 -76.12194 12222 ft 304 kts
2026-05-01 13:39 42.63577 -76.12128 11841 ft 302 kts
2026-05-01 13:40 42.65679 -76.12067 11464 ft 301 kts
2026-05-01 13:40 42.67766 -76.12005 11088 ft 299 kts
2026-05-01 13:40 42.69843 -76.11941 10714 ft 297 kts
2026-05-01 13:40 42.71908 -76.11876 10341 ft 296 kts
2026-05-01 13:41 42.73962 -76.11810 9974 ft 294 kts
2026-05-01 13:41 42.76005 -76.11743 9599 ft 292 kts
2026-05-01 13:41 42.78008 -76.11682 9244 ft 291 kts
2026-05-01 13:41 42.80029 -76.11622 8884 ft 289 kts
2026-05-01 13:42 42.82044 -76.11562 8516 ft 288 kts
2026-05-01 13:42 42.84043 -76.11499 8159 ft 286 kts
2026-05-01 13:42 42.86036 -76.11434 7822 ft 284 kts
2026-05-01 13:42 42.87992 -76.11372 7558 ft 279 kts
2026-05-01 13:43 42.89949 -76.11309 6865 ft 291 kts
2026-05-01 13:43 42.91974 -76.11244 6449 ft 285 kts
2026-05-01 13:43 42.93908 -76.11185 6171 ft 271 kts
2026-05-01 13:43 42.95752 -76.11128 5908 ft 258 kts
2026-05-01 13:44 42.97519 -76.11070 5648 ft 247 kts
2026-05-01 13:44 42.99158 -76.10806 5396 ft 235 kts 21°
2026-05-01 13:44 43.00441 -76.09539 5157 ft 228 kts 53°
2026-05-01 13:44 43.00999 -76.07538 4941 ft 227 kts 82°
2026-05-01 13:45 43.01099 -76.05365 4661 ft 228 kts 87°
2026-05-01 13:45 43.01139 -76.03203 4356 ft 227 kts 88°
2026-05-01 13:45 43.01172 -76.01056 4060 ft 226 kts 88°
2026-05-01 13:45 43.01204 -75.98913 3763 ft 225 kts 88°
2026-05-01 13:46 43.01236 -75.96785 3458 ft 224 kts 88°
2026-05-01 13:46 43.01268 -75.94663 3157 ft 222 kts 88°
2026-05-01 13:46 43.01300 -75.92572 2927 ft 216 kts 88°
2026-05-01 13:46 43.01331 -75.90584 2865 ft 202 kts 88°
2026-05-01 13:47 43.01425 -75.88715 2911 ft 195 kts 74°
2026-05-01 13:47 43.02152 -75.87242 2780 ft 191 kts 36°
2026-05-01 13:47 43.03382 -75.86695 2508 ft 187 kts
2026-05-01 13:47 43.04677 -75.86688 2237 ft 186 kts 358°
2026-05-01 13:48 43.05966 -75.86741 2035 ft 184 kts 358°
2026-05-01 13:48 43.07248 -75.86807 1995 ft 184 kts 356°
2026-05-01 13:48 43.08424 -75.87458 1999 ft 186 kts 322°
2026-05-01 13:48 43.09376 -75.88665 1999 ft 186 kts 315°
2026-05-01 13:49 43.10288 -75.89932 1999 ft 186 kts 315°
2026-05-01 13:49 43.11075 -75.91303 1997 ft 187 kts 298°
2026-05-01 13:49 43.11427 -75.93013 1998 ft 188 kts 275°
2026-05-01 13:49 43.11389 -75.94810 2004 ft 189 kts 268°
2026-05-01 13:50 43.11335 -75.96536 1987 ft 171 kts 269°
2026-05-01 13:50 43.11288 -75.98032 1937 ft 148 kts 269°
2026-05-01 13:50 43.11245 -75.99391 1801 ft 139 kts 269°
2026-05-01 13:50 43.11203 -76.00699 1637 ft 136 kts 269°
2026-05-01 13:51 43.11149 -76.01982 1458 ft 135 kts 268°
2026-05-01 13:51 43.11107 -76.03259 1244 ft 134 kts 269°
2026-05-01 13:51 43.11073 -76.04526 1063 ft 133 kts 270°
2026-05-01 13:51 43.11042 -76.05792 901 ft 133 kts 269°
2026-05-01 13:52 43.11000 -76.07054 726 ft 132 kts 268°
2026-05-01 13:52 43.10964 -76.08313 566 ft 132 kts 269°
2026-05-01 13:52 43.10920 -76.09566 430 ft 131 kts 268°
2026-05-01 13:52 43.10886 -76.10649 415 ft 97 kts 268°
2026-05-01 13:53 43.10862 -76.11348 430 ft 54 kts 266°
2026-05-01 13:53 43.10878 -76.11814 425 ft 7 kts 343°
2026-05-01 13:53 43.10947 -76.11813 421 ft 11 kts
2026-05-01 13:54 43.10972 -76.11750 424 ft 9 kts 93°
2026-05-01 13:54 43.10974 -76.11669 426 ft 8 kts 86°
2026-05-01 13:54 43.10978 -76.11585 427 ft 9 kts 86°
2026-05-01 13:54 43.10983 -76.11486 425 ft 12 kts 87°
2026-05-01 13:55 43.10987 -76.11362 423 ft 14 kts 87°
2026-05-01 13:55 43.11021 -76.11294 428 ft 8 kts 352°
2026-05-01 13:55 43.11089 -76.11300 425 ft 11 kts
2026-05-01 13:55 43.11147 -76.11229 422 ft 14 kts 84°
2026-05-01 13:56 43.11178 -76.11092 423 ft 16 kts 65°
2026-05-01 13:56 43.11200 -76.10964 427 ft 11 kts 83°
2026-05-01 13:56 43.11215 -76.10852 427 ft 11 kts 58°
2026-05-01 13:56 43.11274 -76.10858 423 ft 9 kts 297°
2026-05-01 13:57 43.11281 -76.10891 425 ft 0 kts 290°